Location: Chisholm
(54.9102°N, 114.1701°W)
Time: 11:36:29
(UTC+00:00)

N. Korean satellite - Pass Details

Date: 03 December 2021
Orbit: 447 x 491 km, 97.3° (Epoch: 23 January)

Event Time Altitude Azimuth Distance (km) Brightness Sun altitude
Rises 14:40:33 0° 359° (N) 2,483 9.9 -8.1°
Reaches altitude 10° 14:43:38 10° 328° (NNW) 1,596 8.7 -7.7°
Maximum altitude 14:45:01 12° 304° (NW) 1,465 8.3 -7.5°
Drops below altitude 10° 14:46:24 10° 280° (W) 1,586 8.6 -7.3°
Sets 14:49:27 0° 249° (WSW) 2,449 9.8 -6.9°
